BEIDOU 12

Last updated on Tue May 14 2019 03:06:49 GMT+0000 (Coordinated Universal Time)

1 38250U 12018A 19133.77127899 -.00000097 00000-0 10000-3 0 9998 2 38250 56.6158 30.9451 0021020 240.8931 58.2424 1.86233134 48025

Satellite not in orbit

BEIDOU 12